Date,TemperatureHighF,TemperatureAvgF,TemperatureLowF,DewpointHighF,DewpointAvgF,DewpointLowF,HumidityHigh,HumidityAvg,HumidityLow,PressureMaxIn,PressureMinIn,WindSpeedMaxMPH,WindSpeedAvgMPH,GustSpeedMaxMPH,PrecipitationSumIn
2013-11-1,46,38,29,36,32,27,94,81,65,29.80,29.34,2,0,8,0.00
2013-11-2,47,37,28,36,32,26,93,82,62,29.94,29.80,2,0,4,0.00
2013-11-3,53,44,35,34,33,31,89,67,46,29.90,29.57,6,2,9,0.00
2013-11-4,48,39,33,36,32,25,90,74,60,29.98,29.55,5,1,10,0.04
2013-11-5,33,31,29,25,22,19,80,70,65,30.13,29.98,2,0,5,0.00
2013-11-6,37,28,19,26,19,15,86,71,53,30.07,29.97,1,0,3,0.00
2013-11-7,36,27,21,24,21,16,88,77,57,30.14,30.04,3,0,4,0.00
2013-11-8,39,32,22,31,26,19,94,81,51,30.04,29.48,4,1,9,0.01
2013-11-9,36,35,32,34,30,27,94,84,73,30.16,29.50,6,3,10,0.11
2013-11-10,36,30,16,30,24,9,89,79,68,30.21,30.02,4,1,9,0.00
2013-11-11,16,12,8,9,4,1,82,71,62,30.71,30.21,5,2,10,0.00
2013-11-12,32,22,9,16,11,3,81,64,44,30.70,30.18,3,1,5,0.00
2013-11-13,48,34,23,35,26,15,87,74,59,30.16,29.71,3,0,4,0.00
2013-11-14,33,31,29,30,28,26,91,89,86,29.72,29.67,0,0,1,0.00
2013-11-15,50,35,23,39,30,21,94,82,56,29.69,29.38,3,1,6,0.04
2013-11-16,44,40,37,39,36,33,95,87,70,29.38,29.18,2,0,4,0.04
2013-11-17,39,31,24,37,29,19,95,91,79,29.85,29.21,6,3,11,0.06
2013-11-18,25,23,18,20,17,14,85,80,71,30.18,29.85,6,2,10,0.00
2013-11-19,45,32,20,33,24,16,85,74,59,30.15,29.59,4,2,10,0.00
2013-11-20,46,37,23,32,29,20,90,72,53,30.05,29.60,4,1,9,0.00
2013-11-21,23,14,8,20,10,2,90,81,73,30.60,30.06,5,3,12,0.00
2013-11-22,18,10,0,13,4,-5,83,75,64,30.78,30.48,4,1,10,0.00
2013-11-23,8,1,-5,0,-5,-10,80,76,64,30.93,30.66,2,0,3,0.00
2013-11-24,38,22,2,26,12,-3,80,66,48,30.65,29.75,4,1,6,0.00
2013-11-25,33,28,20,26,23,15,87,81,73,30.10,29.75,6,2,11,0.00
2013-11-26,20,12,4,15,6,-2,82,74,60,30.44,30.10,6,2,11,0.00
2013-11-27,20,12,1,11,5,-4,84,75,63,30.43,29.99,2,0,6,0.00
2013-11-28,20,14,4,14,8,-1,83,76,66,30.48,30.07,4,1,7,0.00
2013-11-29,30,20,6,18,12,2,84,72,57,30.47,29.98,4,1,9,0.00
2013-11-30,25,22,19,19,18,15,90,84,75,30.19,29.96,3,0,5,0.00